{"data":{"norad_id":58107,"intl_designator":"2023-161L","name":"STARLINK-30421","alt_names":[],"object_type":"PAYLOAD","status":"ACTIVE","operator":null,"country":"US","launch_date":"2023-10-21","launch_site_code":"AFWTR","launch_vehicle":null,"mission":null,"orbit_class":"UNKNOWN","rcs_meters":null,"size_class":null,"mass_kg":null,"dimensions":null,"purposes":["comms"],"wikipedia_slug":null,"has_3d_model":false,"image_url":null,"decayed_at":null,"tle_current":{"epoch":"2026-05-24T12:44:13.073568Z","epoch_age_seconds":108973,"freshness":"FRESH","line1":"1 58107U 23161L   26144.53070687 -.00000912  00000+0 -15849-4 0  9991","line2":"2 58107  53.1603 159.5515 0001300  85.6695 274.4456 15.34399525146228","mean_motion":15.34399525,"eccentricity":0.00013,"inclination_deg":53.1603,"raan_deg":159.5515,"arg_perigee_deg":85.6695,"mean_anomaly_deg":274.4456,"bstar":-1.5849e-5,"rev_number":14622,"period_min":93.847787133537,"perigee_km":461.81534259281,"apogee_km":463.59396142233,"semimajor_km":6840.8416520076,"source":"CELESTRAK","updated_at":"2026-05-25T13:38:18.528079Z"}}}